Location: Helion Bumpstead
(52.0500°N, 0.4000°E)
Time: 08:53:07
(UTC+00:00)

Cosmos 2219 Rocket - Pass Details

Date: 15 November 2025
Orbit: 825 x 846 km, 71.0° (Epoch: 14 December)

Event Time Altitude Azimuth Distance (km) Brightness Sun altitude
Exits shadow 04:26:23 23° 346° (NNW) 1,726 3.7 -26.2°
Drops below altitude 10° 04:29:36 10° 18° (NNE) 2,482 4.9 -25.7°
Sets 04:32:29 0° 31° (NNE) 3,421 5.8 -25.3°
